Location: Newark
(31.5350°N, 35.0986°E)
Time: 03:30:55
(UTC+00:00)

Transit 4A - Pass Details

Date: 25 October 2019
Orbit: 869 x 976 km, 66.8° (Epoch: 18 November)

Event Time Altitude Azimuth Distance (km) Brightness Sun altitude
Rises 01:13:29 0° 217° (SW) 3,658 - -33.9°
Reaches altitude 10° 01:16:07 10° 222° (SW) 2,710 - -33.3°
Maximum altitude 01:22:17 52° 298° (WNW) 1,180 - -32.0°
Exits shadow 01:25:22 29° 0° (N) 1,694 9.2 -31.3°
Drops below altitude 10° 01:28:23 10° 15° (NNE) 2,675 10.5 -30.7°
Sets 01:30:59 0° 20° (NNE) 3,608 11.3 -30.2°
